YAOGAN 30 DEB

Satellite information

Favourite Embed

Satellite Type and Status

DEBRISIN ORBIT

Key statistics

Satellite YAOGAN 30 DEB at a glance.

Uptime

3448

Days in orbit

Revolutions

≈ 14.3

Per day

Orbit

SSO

Sun Synchronous Orbit

Inclination

98.0

Latest

Satellite identification and parameters

Extended collection of information and parameters for YAOGAN 30 DEB.

Object identification

Identified? True

Debris? True

Object name: YAOGAN 30 DEB

International designator: 2016-029B

Object number (NORAD): 42676

Object ID (CCSDS): 42676

Country: PEOPLES REPUBLIC OF CHINA (PRC)

Current information (Y/N): Y

RCS size: SMALL

Orbital parameters

Period: 100.667 minutes

Inclination: 98.0478 deg

SMA: 7168.35 km

Apoapsis: 959.369 km

Periapsis: 621.062 km

RAAN: 133.1113 deg

Eccentricy: 0.02359729

Argument of periapsis: 91.2117 deg

Mean anomaly: 271.6111 deg

Mean motion: 14.30454111 rev/day

Mean motion (dot): 0.00002984 rev/day2

B* drag term: 0.00085779011 1/REarth

Two-line elements (TLE)

Creation date: Oct. 21, 2025, 6:24 p.m.

Reference frame: TEME

Reference center: EARTH

Epoch: Oct. 20, 2025, 11:57 p.m. UTC

TLE line 0: 0 YAOGAN 30 DEB

TLE line 1: 1 42676U 16029B 25293.99813595 .00002984 00000-0 85779-3 0 9995

TLE line 2: 2 42676 98.0478 133.1113 0235973 91.2117 271.6111 14.30454111477850

Live tracking on map

Real-time ground track for satellite YAOGAN 30 DEB.

In-orbit conjunctions

A list of the most updated potential collisions computed for object YAOGAN 30 DEB.

Target Orbit TCA Probability of collision Miss distance Type
CZ-4B DEB SSO 2025-05-03 10:01:06 0.0001140432 93.0 (m) DEBRIS
IRIDIUM 33 DEB LEO 2024-09-28 05:01:58 0.0007736973 70.0 (m) DEBRIS
COSMOS 628 LEO 2024-06-30 03:46:10 0.0001710607 164.0 (m) PAYLOAD

Associated space launch

The satellite will be used for experiments, land surveys, crop yield estimates and disaster relief.

YAOGAN 30 DEB was lifted into orbit during the mission ‘Long March 2D | Yaogan-30’, on board a Long March 2D space rocket.

The launch took place on May 15, 2016, 2:43 a.m. from Launch Area 4 (SLS-2 / 603).

For more information about the launch, click the button.

Launch to space Long March 2D | Yaogan-30
Long March 2D | Yaogan-30

Agency: N/A

Status: Launch Successful

Launch date: May 15, 2016, 2:43 a.m. UTC

Rocket: Long March 2D

Launch pad: Launch Area 4 (SLS-2 / 603)

Location: Jiuquan Satellite Launch Center, People's Republic of China

...

Latest news about this satellite

There are no fresh news available about this satellite. Check back as we update our databases every day.


Newsletter sign-up

Weekly statistics, charts and insights to help you stay on top of the space industry.